Location: Hooge Bijssel
(52.3833°N, 5.7333°E)
Time: 10:57:48
(UTC+00:00)

Daily predictions for brighter satellites

Satellite Brightness Start Highest point End
(mag) Time Altitude Azimuth Time Altitude Azimuth Time Altitude Azimuth
ADEOS 4.3 18:53:58 10° SE 18:58:43 37° ENE 19:03:30 10° N
SL-16 R/B 2.4 18:54:56 10° SSW 19:00:37 83° WNW 19:06:20 10° NNE
Terra 2.5 18:57:20 10° SE 19:01:35 36° ENE 19:05:52 10° N
ATLAS 5 CENTAUR R/B 2.6 18:58:52 10° W 19:01:37 31° NNW 19:04:40 10° NE
CSL-04 Debris 4.2 18:58:51 10° SSE 19:04:11 73° ENE 19:09:34 10° NNW
Meteor 1-22 Rocket 4.3 18:59:45 10° S 19:05:23 80° E 19:11:18 10° NNE
Cosmos 1898 Rocket 3.8 19:01:00 10° S 19:06:00 46° ESE 19:10:58 10° NE
CZ-4 R/B 1.3 19:02:37 10° SSE 19:06:22 59° ENE 19:10:05 10° N
Resurs 01 Rocket 3.4 19:04:29 10° SSW 19:08:30 34° W 19:12:31 10° NNW
Okean O Rocket 2.9 19:07:15 10° ESE 19:10:46 24° ENE 19:14:16 10° N
Meteor 1-24 Rocket 3.9 19:07:31 10° NNW 19:12:57 79° W 19:18:32 10° S
Cosmos 1538 Rocket 4.5 19:08:16 10° NNW 19:13:23 64° WSW 19:18:28 10° S
Cosmos 2333 4.2 19:09:55 10° SSW 19:15:25 62° ESE 19:20:57 10° NE
Cosmos 372 Rocket 4.0 19:11:36 10° SSW 19:16:47 72° ESE 19:22:01 10° NNE
Cosmos 1680 Rocket 3.7 19:11:49 10° NNW 19:16:58 54° ENE 19:22:03 10° SE
Cosmos 2219 Rocket 2.3 19:15:53 10° S 19:21:17 53° ESE 19:26:43 10° NE
SPOT 5 3.1 19:17:03 10° S 19:21:48 72° WSW 19:26:21 10° NNW
CZ-4B R/B 3.8 19:20:30 10° S 19:24:05 74° WSW 19:27:49 10° NNW
Cosmos 2074 Rocket 4.0 19:18:25 10° S 19:24:39 86° E 19:30:58 10° N
Meteor 1-31 Rocket 2.8 19:23:13 10° S 19:26:44 71° WSW 19:30:16 10° NNW
Cosmos 1937 Rocket 3.7 19:22:24 10° S 19:27:31 52° ESE 19:32:39 10° NNE
SL-24 R/B - RUBIN 2 3.6 19:26:50 10° NW 19:31:14 79° NE 19:35:18 13° SE
Cosmos 923 Rocket 4.1 19:27:38 10° NNW 19:33:00 90° ENE 19:38:17 10° SSE
Cosmos 2369 Rocket 4.4 19:30:19 10° NNW 19:33:29 15° NNE 19:36:38 10° NE
USA 234 3.2 19:27:50 10° ENE 19:34:25 75° SSE 19:40:58 10° SW
Cosmos 2112 Rocket 4.1 19:29:22 10° NNW 19:34:34 62° ENE 19:39:17 12° SE
USA 186 2.6 19:34:28 16° E 19:34:53 17° ENE 19:36:24 10° NNE
NOSS 2-3 (E) 4.1 19:31:49 10° NW 19:36:37 88° NE 19:42:20 13° SE
USA 238 DEB 4.3 19:30:58 10° NW 19:37:55 54° NNE 19:44:50 13° ESE
USA 238 4.4 19:31:08 10° NW 19:38:05 54° NNE 19:45:00 13° ESE
COSMOS 2428 3.6 19:34:02 10° SSE 19:38:48 28° ESE 19:43:35 10° NE
NOSS 2-3 (C) 4.1 19:35:23 10° NW 19:40:04 76° NE 19:45:27 15° SE
Cosmos 1953 3.2 19:37:30 10° SSW 19:40:59 46° WNW 19:44:29 10° N
PAYLOAD B 4.2 19:35:38 10° SSE 19:41:08 88° WSW 19:46:40 10° NNW
Meteor 1-15 Rocket 4.4 19:35:42 10° SSW 19:41:16 78° WNW 19:46:53 10° N
CZ-4B R/B 3.2 19:36:07 10° SSE 19:41:38 79° ENE 19:47:18 10° NNW
MetOp-B 4.1 19:36:41 10° SSE 19:42:02 80° ENE 19:47:26 10° NNW
CZ-4B DEB 4.4 19:36:50 10° SSE 19:42:17 78° WSW 19:47:49 10° NNW
CSL-04 Rocket 4.4 19:37:16 10° S 19:42:41 56° W 19:48:11 10° NNW
Cosmos 2278 Rocket 2.8 19:38:05 10° NNW 19:43:32 45° NE 19:47:49 16° ESE
Cosmos 2366 rocket 4.4 19:41:19 10° SSE 19:46:59 40° E 19:52:40 10° NNE
NOSS 3-2 (C) 4.2 19:41:24 10° NW 19:48:29 76° SW 19:56:23 13° SSE
Cosmos 1610 Rocket 4.5 19:43:21 10° S 19:49:40 82° E 19:55:56 10° NNE
Ariane Rocket 4.2 19:46:48 15° ESE 19:49:50 26° ENE 19:53:58 10° N
Cosmos 2333 Rocket 3.3 19:44:32 10° SW 19:50:02 49° NW 19:55:33 10° NNE
Cosmos 1703 Rocket 3.9 19:48:51 10° NNW 19:53:09 64° W 19:57:24 10° S
Geosat 3.9 19:48:57 10° NE 19:53:58 71° ESE 19:58:57 10° SSW
BREEZE-M DEB (TANK) 2.2 19:54:07 10° WSW 19:56:35 54° S 19:59:33 18° ESE
Spot 2 Rocket 3.5 19:53:56 15° SSE 19:58:01 62° ENE 20:02:59 10° N
Cosmos 1470 Rocket 4.2 19:54:10 10° SSW 19:58:30 57° WNW 20:02:49 10° N
NOSS 2-3 (D) 4.3 19:54:05 10° NW 19:58:56 74° SW 20:03:54 17° SE
Lacrosse 5 rocket 1.3 19:56:52 10° SSW 19:59:46 32° SE 20:00:41 26° ESE
CZ-2C R/B 3.9 20:00:39 17° ENE 20:01:02 18° ENE 20:03:05 10° NNE
ARIANE 6 FM1 Upper Stage 2.6 19:57:03 10° SW 20:01:10 86° NW 20:05:13 10° NE
ERS-1 Rocket 3.3 19:58:45 10° S 20:03:43 65° WSW 20:08:43 10° NNW
Cosmos 1933 Rocket 3.5 20:01:30 10° S 20:05:52 83° E 20:10:17 10° NNE
Cosmos 1943 Rocket 2.2 20:03:33 10° NNW 20:09:15 73° ENE 20:12:59 22° SE
Helios 1A Rocket 3.6 20:07:18 10° N 20:10:22 42° WNW 20:13:26 10° SW
YAOGAN 11 4.2 20:06:47 10° NNE 20:10:54 48° E 20:13:55 17° S
Cosmos 2218 Rocket 4.1 20:06:20 10° SSE 20:12:18 55° E 20:18:17 10° NNE
Meteor 1-11 4.5 20:07:57 10° N 20:13:24 50° ENE 20:16:33 24° SE
In-Cosmos 22 Rocket 4.1 20:09:01 10° NNW 20:14:25 81° W 20:19:02 14° S
Meteor 1-12 Rocket 4.5 20:09:25 10° SSW 20:15:25 83° WNW 20:21:29 10° NNE
USA 59 Rocket 0.8 20:12:56 10° NNW 20:15:43 29° NNE 20:17:17 20° ENE
MOS 1-B 4.3 20:14:20 16° SSE 20:19:01 89° ENE 20:24:51 10° NNW
Cosmos 1733 Rocket 3.7 20:18:21 29° SE 20:19:41 36° E 20:23:43 10° NNE
SeaSat 1 3.6 20:19:54 19° E 20:22:33 31° NE 20:26:50 10° NNW
NOSS 3-4 (A) 4.2 20:23:14 23° ESE 20:23:14 23° ESE 20:27:07 10° ENE
Cosmos 494 Rocket 4.3 20:17:34 10° NNW 20:22:41 63° WSW 20:26:29 18° S
CZ-4B R/B 3.7 20:20:21 27° SE 20:22:46 52° ENE 20:27:25 10° N
NOSS 3-4 (C) 4.2 20:23:46 23° ESE 20:23:46 23° ESE 20:27:38 10° ENE
Okean-O 2.6 20:20:35 21° SSE 20:23:27 86° WSW 20:27:52 10° NNW
IRS-1C Rocket 4.5 20:20:58 26° SE 20:23:38 48° ENE 20:28:42 10° N
ATLAS 3B R/B 3.8 20:18:04 10° WSW 20:25:42 55° NNW 20:33:27 10° NE
Cosmos 1821 Rocket 4.2 20:22:24 19° SSE 20:26:47 52° E 20:32:54 10° NNE
Cosmos 1048 Rocket 3.9 20:22:02 10° NNW 20:27:11 78° ENE 20:29:52 29° SSE
Cosmos 2360 Rocket 3.6 20:23:37 10° WSW 20:28:56 41° NW 20:34:18 10° NNE
Timation 2 Rocket 4.0 20:26:25 10° NNW 20:32:40 81° NE 20:36:19 28° SE
NOSS 2-1 (E) 4.3 20:31:28 10° NNW 20:34:16 28° NNE 20:35:21 23° ENE
Cosmos 1869 Rocket 3.8 20:31:31 10° SSW 20:35:52 71° WNW 20:40:17 10° N
NOSS 2-1 (C) 4.1 20:33:09 10° NNW 20:36:00 31° NE 20:36:58 26° ENE
Cosmos 2322 Rocket 3.9 20:31:55 10° WSW 20:37:03 35° NW 20:42:13 10° NNE
Aureole 3 3.5 20:34:16 10° N 20:38:15 69° ENE 20:40:03 36° SSE
Terra 3.2 20:34:48 10° SSW 20:39:06 36° W 20:43:27 10° NNW
Meteor 2-21 4.4 20:32:59 10° N 20:39:08 80° E 20:42:49 26° SSE
CZ-4 R/B 4.0 20:38:26 10° SW 20:40:44 15° W 20:43:03 10° NW
NOSS 2-1 (D) 3.8 20:38:49 10° NW 20:41:46 38° NE 20:42:33 33° ENE
Cosmos 2242 Rocket 3.5 20:40:01 10° N 20:44:33 89° E 20:46:21 36° S
ATLAS 5 CENTAUR R/B 3.9 20:42:41 10° NW 20:44:43 15° N 20:46:55 10° NNE
SL-08 R/B 3.8 20:41:49 10° N 20:46:39 63° WNW 20:51:28 10° SSW
Okean O Rocket 2.3 20:43:57 21° SSW 20:46:41 50° W 20:50:57 10° NNW
Cosmos 1025 Rocket 3.3 20:44:38 10° N 20:48:45 46° ENE 20:49:24 42° ESE
Cosmos 2237 Rocket 2.6 20:47:31 35° SE 20:48:50 40° ESE 20:54:07 10° NE
Cosmos 1980 4.0 20:47:56 34° SSE 20:49:39 43° ESE 20:54:57 10° NE
Cosmos 1125 Rocket 4.1 20:51:20 34° ESE 20:51:28 34° ESE 20:56:10 10° NE
CZ-4B R/B 2.6 20:51:35 53° S 20:52:20 78° WSW 20:55:53 10° NNW
Cosmos 2292 Rocket 4.2 20:46:39 10° N 20:52:34 58° ENE 20:54:03 41° SE
Cosmos 2322 3.7 20:47:02 10° SSW 20:52:46 87° WNW 20:58:32 10° NNE
ASTEX 1 3.3 20:50:47 33° S 20:53:02 89° W 20:57:59 10° N
Cosmos 2341 Rocket 4.2 20:48:30 10° SSW 20:54:43 71° WNW 21:01:02 10° N
Cosmos 1400 Rocket 2.9 21:03:02 51° ENE 21:03:02 51° ENE 21:06:04 10° NNE
USA 186 4.0 21:04:43 13° W 21:04:43 13° W 21:05:32 10° WNW
SPOT 3 Rocket 3.6 21:02:11 35° S 21:04:26 74° WSW 21:09:39 10° NNW
Cosmos 2219 Rocket 3.7 21:00:18 10° WSW 21:05:27 37° NW 21:10:38 10° NNE
Meteor 2-21 Rocket 4.4 21:06:01 10° NNW 21:12:10 85° W 21:14:50 36° S
USA 234 3.6 21:10:57 10° ENE 21:17:25 66° NNW 21:23:54 10° W
USA 245 4.3 21:17:15 34° SW 21:18:24 43° W 21:22:51 10° NNW
Cosmos 2369 Rocket 3.0 21:13:53 10° NNW 21:19:08 39° NE 21:20:57 31° E
Cosmos 1674 Rocket 3.5 21:15:03 10° NNW 21:19:22 78° W 21:19:57 64° SSW
Cosmos 1908 Rocket 4.1 21:22:14 44° ENE 21:22:14 44° ENE 21:25:51 10° NNE
COSMOS 2428 3.1 21:16:56 10° SW 21:22:38 65° NW 21:28:22 10° NNE
Helios 1B rocket 3.4 21:23:49 29° NE 21:23:49 29° NE 21:26:16 10° N
Cosmos 1727 Rocket 4.2 21:19:14 10° NNW 21:25:34 68° W 21:28:33 33° SSW
NOSS 0 Rocket 3.9 21:19:19 10° SSW 21:25:35 88° WNW 21:31:52 10° NNE
Cosmos 2278 Rocket 3.0 21:22:18 10° NW 21:27:37 42° WSW 21:29:39 31° SSW
Ariane Rocket 3.3 21:26:52 41° SSW 21:28:23 59° WSW 21:33:23 10° NNW
USA 238 DEB 4.1 21:21:58 10° NW 21:29:12 63° SW 21:32:16 38° S
USA 238 4.1 21:22:08 10° NW 21:29:22 63° SW 21:32:26 39° S
Cosmos 2221 Rocket 3.4 21:25:37 10° N 21:30:01 82° ENE 21:30:11 80° ESE
CZ-2C R/B 4.0 21:32:30 27° WNW 21:32:30 27° WNW 21:34:29 10° NNW
Cosmos 1346 Rocket 2.9 21:28:25 10° NNW 21:31:34 62° NW 21:31:34 62° NW
Helios 1A 4.3 21:30:37 10° NNE 21:32:54 27° NE 21:32:54 27° NE
Lacrosse 5 rocket 3.1 21:33:08 10° W 21:34:04 18° W 21:34:04 18° W
Cosmos 2058 4.4 21:39:12 10° N 21:41:48 25° NE 21:41:48 25° NE
DNEPR-1 R/B 3.7 21:45:57 61° NE 21:45:57 61° NE 21:49:44 10° NE
Cosmos 1656 Rocket 3.5 21:44:09 10° NNW 21:49:36 81° WSW 21:50:17 68° S
Cosmos 1943 Rocket 3.8 21:48:01 10° NW 21:52:27 24° WSW 21:54:29 19° SW
SJ 16-02 3.8 21:53:43 10° NNE 21:55:39 13° NE 21:56:47 12° ENE
SL-16 R/B 3.1 21:58:05 35° E 21:58:05 35° E 22:02:06 10° NE
SeaSat 1 2.5 21:59:30 63° SW 21:59:40 64° WSW 22:04:34 10° NW
Cosmos 2123 Rocket 4.2 21:55:58 10° NNW 22:02:08 65° W 22:03:50 47° SSW
USA 59 Rocket 1.4 22:01:09 10° WNW 22:02:49 26° WNW 22:02:49 26° WNW
Cosmos 1934 Rocket 3.9 22:03:44 54° SSW 22:05:21 85° W 22:11:39 10° N
Cosmos 1140 Rocket 3.9 22:03:26 10° NNW 22:08:28 48° ENE 22:08:44 48° ENE
Cosmos 921 Rocket 4.3 22:04:30 10° N 22:08:19 32° NE 22:08:19 32° NE
Cosmos 2346 Rocket 4.4 22:03:06 10° N 22:09:13 72° ENE 22:09:59 64° SE
NOSS 3-4 (A) 3.2 22:10:28 37° SW 22:12:45 80° NW 22:18:49 10° NE
NOSS 3-4 (C) 3.2 22:11:02 38° SW 22:13:15 80° NW 22:19:20 10° NE
Cosmos 1300 Rocket 4.0 22:17:13 56° N 22:17:13 56° N 22:20:38 10° N
ATLAS 3B R/B 4.4 22:10:56 10° WNW 22:18:06 36° N 22:25:14 10° ENE
Cosmos 2285 Rocket 3.9 22:19:16 66° SE 22:19:40 68° ESE 22:25:59 10° NNE
Cosmos 967 Rocket 4.4 22:19:14 10° NW 22:25:45 80° NE 22:26:46 64° ESE
NOSS 3-1 (C) 3.9 22:19:40 10° NW 22:26:20 80° NE 22:28:44 49° ESE
Cosmos 1535 Rocket 4.3 22:26:51 72° S 22:27:32 89° E 22:33:42 10° N
ATLAS 5 CENTAUR R/B 3.6 22:25:13 10° NNW 22:28:00 20° NNE 22:29:34 17° NE
RESURS DK-1 3.8 22:30:06 33° NNE 22:30:06 33° NNE 22:32:26 10° NNE
ALOS 2 3.4 22:29:40 46° NNE 22:29:40 46° NNE 22:33:11 10° N
Cosmos 2237 Rocket 3.1 22:29:12 20° WSW 22:32:50 47° NW 22:38:22 10° NNE
Cosmos 1125 Rocket 4.4 22:31:27 32° WSW 22:33:20 45° NW 22:38:25 10° NNE
Cosmos 1605 Rocket 3.8 22:32:45 74° SSW 22:33:22 89° WNW 22:39:31 10° N
Cosmos 1269 Rocket 4.1 22:32:07 10° NNW 22:37:13 72° NE 22:37:13 72° NE
Cosmos 2297 3.6 22:31:40 10° NNW 22:37:28 81° WSW 22:37:29 81° WSW
ARIANE 5 R/B 3.3 22:40:11 52° N 22:40:11 52° N 22:43:32 10° NNW
Cosmos 1975 Rocket 3.9 22:38:00 10° NNW 22:41:32 48° NW 22:41:32 48° NW
COSMOS 2455 3.5 22:37:50 10° NW 22:43:41 48° NE 22:45:16 39° E
MetOp-A 4.4 22:51:08 52° NE 22:51:08 52° NE 22:55:37 10° N
Cosmos 2150 Rocket 4.1 22:54:10 72° NNW 22:54:10 72° NNW 22:59:00 10° NNE
Cosmos 2173 Rocket 4.2 22:55:45 53° E 22:55:45 53° E 23:01:33 10° NNE
CZ-2C R/B 4.4 22:52:34 10° NNE 22:55:50 28° ENE 22:55:50 28° ENE
USA 234 3.6 22:53:40 10° E 23:00:07 63° N 23:06:35 10° WNW
Cosmos 2100 Rocket 4.1 23:00:25 59° E 23:00:25 59° E 23:06:26 10° NNE
Cosmos 371 Rocket 4.0 22:58:19 10° NNW 23:02:35 48° NE 23:02:35 48° NE
Cosmos 2369 Rocket 2.7 22:57:55 10° NW 23:02:43 47° W 23:02:43 47° W
NOSS 3-1 (A) 3.9 23:10:45 10° NW 23:17:29 79° NE 23:19:58 48° ESE
Cosmos 1943 3.5 23:21:35 56° ENE 23:21:35 56° ENE 23:26:19 10° NE
SJ 16-02 2.5 23:30:22 10° NNW 23:33:16 40° N 23:33:16 40° N
Cosmos 407 Rocket 3.9 23:30:11 10° NNW 23:34:21 57° NW 23:34:21 57° NW
Cosmos 1864 Rocket 4.4 23:39:22 77° ESE 23:39:31 78° E 23:45:52 10° NNE
ACS3 Solar Sail 3.4 23:35:11 10° NE 23:39:38 21° E 23:40:25 21° E
SL-16 R/B 2.9 23:39:53 43° W 23:40:54 47° NW 23:46:24 10° NNE
Cosmos 1802 Rocket 3.9 23:43:35 80° SE 23:43:49 81° E 23:50:10 10° NNE
CZ-2C R/B 2.7 23:44:18 81° N 23:44:18 81° N 23:49:36 10° NNW
Meteor 2-3 Rocket 3.8 23:40:42 10° NNW 23:45:50 66° WNW 23:45:50 66° WNW
Cosmos 1725 Rocket 3.9 23:48:08 80° SE 23:48:22 81° E 23:54:43 10° NNE
Cosmos 1818 4.2 23:45:03 10° NW 23:50:24 51° NE 23:51:37 43° ENE
